Total_Precipitation_Accumulation
0.00 0.00 0.03 0.04 0.01 0.01 0.02 0.03 0.08 0.03 0.09 0.12 0.10 0.00 0.00 0.00 0.00 0.00 0.00 0.00 0.00 0.00 0.00 0.00 0.00 0.01 0.02 0.04 0.06 0.06 0.09 0.10 0.07 0.09 0.13 0.11 0.07 0.11 0.15 0.16 0.24 0.21 0.20 0.11
0.00 0.00 0.00 0.00 0.01 0.06 0.03 0.01 0.03 0.04 0.08 0.06 0.10 0.05 0.00 0.00 0.00 0.00 0.00 0.00 0.00 0.00 0.00 0.00 0.00 0.00 0.00 0.00 0.02 0.03 0.03 0.09 0.09 0.08 0.09 0.10 0.05 0.06 0.09 0.11 0.13 0.18 0.20 0.19
0.06 0.00 0.00 0.00 0.00 0.01 0.06 0.03 0.02 0.05 0.01 0.01 0.01 0.01 0.00 0.00 0.00 0.00 0.00 0.00 0.00 0.00 0.00 0.00 0.00 0.00 0.00 0.00 0.00 0.01 0.04 0.04 0.05 0.06 0.08 0.06 0.09 0.06 0.08 0.11 0.09 0.10 0.12 0.16
0.12 0.04 0.06 0.01 0.00 0.00 0.00 0.02 0.00 0.00 0.00 0.00 0.00 0.00 0.00 0.00 0.00 0.00 0.00 0.00 0.00 0.00 0.00 0.00 0.00 0.00 0.00 0.00 0.00 0.01 0.03 0.03 0.04 0.04 0.06 0.08 0.09 0.08 0.08 0.08 0.09 0.08 0.09 0.12
0.16 0.16 0.07 0.01 0.00 0.00 0.00 0.00 0.00 0.00 0.00 0.00 0.00 0.00 0.00 0.00 0.00 0.00 0.00 0.00 0.00 0.00 0.00 0.00 0.00 0.00 0.00 0.00 0.01 0.01 0.02 0.02 0.03 0.05 0.06 0.05 0.06 0.05 0.05 0.07 0.10 0.10 0.11 0.10
0.19 0.19 0.11 0.02 0.00 0.00 0.00 0.02 0.00 0.00 0.00 0.00 0.00 0.00 0.00 0.00 0.00 0.00 0.00 0.00 0.00 0.00 0.00 0.00 0.00 0.00 0.01 0.00 0.00 0.01 0.01 0.01 0.02 0.02 0.02 0.01 0.03 0.03 0.04 0.06 0.06 0.05 0.06 0.06
0.16 0.20 0.07 0.01 0.01 0.00 0.04 0.09 0.00 0.00 0.00 0.00 0.00 0.00 0.00 0.00 0.00 0.00 0.00 0.00 0.00 0.00 0.00 0.00 0.00 0.00 0.00 0.00 0.00 0.00 0.01 0.01 0.03 0.03 0.04 0.04 0.02 0.02 0.03 0.03 0.03 0.04 0.05 0.05
0.13 0.19 0.07 0.02 0.06 0.12 0.14 0.03 0.00 0.00 0.00 0.00 0.00 0.00 0.00 0.00 0.00 0.00 0.00 0.00 0.00 0.00 0.00 0.00 0.00 0.00 0.00 0.00 0.00 0.01 0.03 0.04 0.05 0.06 0.08 0.06 0.06 0.08 0.09 0.07 0.08 0.08 0.07 0.06
0.03 0.05 0.04 0.05 0.09 0.08 0.03 0.02 0.01 0.01 0.00 0.00 0.00 0.00 0.00 0.00 0.00 0.00 0.00 0.00 0.00 0.00 0.00 0.00 0.00 0.00 0.00 0.01 0.03 0.05 0.06 0.07 0.09 0.09 0.06 0.05 0.08 0.11 0.12 0.11 0.12 0.13 0.11 0.12
0.11 0.09 0.08 0.17 0.13 0.02 0.01 0.01 0.01 0.00 0.00 0.00 0.00 0.00 0.01 0.02 0.01 0.01 0.01 0.01 0.00 0.00 0.00 0.00 0.00 0.00 0.02 0.05 0.04 0.04 0.04 0.08 0.07 0.06 0.09 0.05 0.09 0.11 0.11 0.11 0.14 0.16 0.19 0.22
0.16 0.20 0.16 0.27 0.36 0.10 0.02 0.00 0.01 0.01 0.01 0.02 0.03 0.03 0.04 0.06 0.07 0.06 0.04 0.03 0.02 0.01 0.02 0.03 0.04 0.06 0.07 0.07 0.10 0.12 0.10 0.11 0.11 0.11 0.12 0.11 0.12 0.19 0.17 0.23 0.33 0.34 0.35 0.34
0.24 0.47 0.33 0.48 0.22 0.14 0.06 0.01 0.01 0.01 0.02 0.07 0.12 0.07 0.05 0.05 0.08 0.12 0.16 0.19 0.15 0.13 0.11 0.11 0.13 0.18 0.19 0.18 0.16 0.17 0.16 0.18 0.22 0.17 0.17 0.17 0.16 0.24 0.40 0.44 0.43 0.48 0.53 0.52
0.15 0.22 0.15 0.10 0.08 0.04 0.02 0.03 0.04 0.03 0.04 0.04 0.03 0.02 0.03 0.07 0.06 0.07 0.14 0.22 0.32 0.32 0.30 0.31 0.34 0.37 0.36 0.37 0.32 0.30 0.30 0.27 0.28 0.30 0.32 0.33 0.33 0.31 0.40 0.58 0.63 0.75 0.80 0.79
0.02 0.03 0.05 0.03 0.03 0.02 0.02 0.02 0.01 0.01 0.01 0.01 0.00 0.00 0.01 0.05 0.06 0.08 0.11 0.14 0.16 0.23 0.37 0.47 0.54 0.66 0.83 0.87 0.87 0.92 0.96 0.97 0.88 0.86 0.91 1.02 1.14 1.23 1.25 1.23 1.21 1.26 1.20 1.03
0.06 0.07 0.08 0.06 0.03 0.02 0.01 0.01 0.01 0.00 0.00 0.00 0.00 0.01 0.02 0.03 0.04 0.04 0.06 0.11 0.16 0.20 0.32 0.44 0.55 0.80 0.99 1.17 1.34 1.53 1.64 1.77 1.75 1.69 1.58 1.40 1.23 1.10 1.05 1.04 1.01 1.03 0.99 0.88
0.00 0.00 0.01 0.02 0.02 0.01 0.00 0.01 0.00 0.00 0.00 0.00 0.02 0.03 0.03 0.03 0.05 0.08 0.09 0.09 0.09 0.16 0.23 0.27 0.40 0.69 0.79 0.88 0.99 1.06 1.05 0.98 0.85 0.80 0.78 0.73 0.70 0.63 0.58 0.54 0.50 0.47 0.44 0.42
0.02 0.02 0.01 0.02 0.02 0.01 0.02 0.02 0.02 0.02 0.03 0.04 0.07 0.07 0.05 0.05 0.06 0.13 0.25 0.33 0.39 0.54 0.65 0.70 0.94 0.96 0.84 0.71 0.54 0.52 0.51 0.54 0.53 0.50 0.49 0.46 0.40 0.34 0.30 0.26 0.23 0.19 0.18 0.14
0.15 0.17 0.18 0.17 0.13 0.08 0.08 0.10 0.11 0.12 0.16 0.17 0.17 0.18 0.19 0.21 0.27 0.35 0.47 0.50 0.48 0.56 0.67 0.73 0.66 0.53 0.45 0.40 0.34 0.33 0.29 0.28 0.24 0.22 0.20 0.17 0.15 0.13 0.11 0.10 0.09 0.07 0.07 0.06
0.15 0.16 0.20 0.21 0.21 0.18 0.17 0.17 0.18 0.19 0.22 0.22 0.21 0.28 0.29 0.33 0.35 0.43 0.48 0.40 0.40 0.33 0.50 0.38 0.28 0.20 0.19 0.18 0.14 0.12 0.11 0.10 0.09 0.09 0.08 0.06 0.06 0.06 0.05 0.05 0.05 0.04 0.04 0.03
0.19 0.21 0.19 0.19 0.18 0.17 0.17 0.22 0.19 0.20 0.31 0.29 0.28 0.32 0.35 0.48 0.47 0.42 0.31 0.26 0.28 0.28 0.25 0.19 0.13 0.11 0.10 0.09 0.07 0.06 0.06 0.05 0.05 0.05 0.04 0.04 0.04 0.03 0.02 0.01 0.01 0.01 0.01 0.01
0.22 0.22 0.23 0.22 0.24 0.27 0.28 0.34 0.24 0.27 0.39 0.35 0.27 0.30 0.28 0.32 0.28 0.23 0.14 0.13 0.24 0.17 0.13 0.11 0.09 0.08 0.07 0.06 0.05 0.04 0.03 0.02 0.02 0.01 0.01 0.00 0.01 0.01 0.00 0.00 0.01 0.01 0.01 0.01
0.29 0.24 0.27 0.26 0.19 0.25 0.32 0.31 0.25 0.26 0.27 0.26 0.25 0.26 0.19 0.22 0.19 0.15 0.14 0.13 0.15 0.09 0.06 0.06 0.05 0.03 0.03 0.02 0.01 0.00 0.00 0.00 0.00 0.00 0.00 0.00 0.00 0.01 0.00 0.01 0.01 0.01 0.01 0.01
0.33 0.30 0.29 0.27 0.23 0.25 0.24 0.21 0.21 0.16 0.15 0.14 0.12 0.11 0.07 0.08 0.06 0.03 0.06 0.07 0.04 0.02 0.01 0.01 0.00 0.00 0.00 0.00 0.00 0.00 0.00 0.00 0.00 0.00 0.00 0.00 0.00 0.01 0.01 0.01 0.01 0.01 0.01 0.01
0.21 0.18 0.16 0.14 0.09 0.06 0.06 0.07 0.04 0.02 0.02 0.02 0.02 0.02 0.02 0.01 0.03 0.02 0.01 0.01 0.01 0.00 0.00 0.00 0.00 0.00 0.00 0.00 0.00 0.00 0.00 0.00 0.01 0.00 0.00 0.00 0.01 0.01 0.01 0.00 0.00 0.01 0.01 0.01
0.09 0.07 0.03 0.02 0.01 0.02 0.02 0.01 0.00 0.00 0.00 0.01 0.01 0.01 0.01 0.00 0.02 0.02 0.00 0.00 0.00 0.00 0.01 0.00 0.00 0.00 0.00 0.00 0.00 0.00 0.01 0.00 0.01 0.00 0.00 0.01 0.01 0.01 0.01 0.01 0.00 0.01 0.01 0.00
0.02 0.01 0.01 0.00 0.01 0.01 0.00 0.00 0.01 0.02 0.01 0.02 0.03 0.03 0.03 0.02 0.01 0.01 0.01 0.00 0.00 0.00 0.00 0.00 0.00 0.00 0.01 0.00 0.00 0.00 0.00 0.00 0.00 0.00 0.00 0.01 0.01 0.01 0.00 0.00 0.00 0.00 0.00 0.00
0.00 0.00 0.00 0.00 0.00 0.00 0.00 0.00 0.01 0.01 0.01 0.01 0.02 0.03 0.02 0.02 0.01 0.00 0.00 0.00 0.00 0.00 0.00 0.01 0.01 0.00 0.01 0.00 0.00 0.00 0.00 0.00 0.00 0.00 0.00 0.01 0.00 0.01 0.00 0.00 0.00 0.00 0.00 0.00